This demonstration page uses our WeatherBlox Daily Observations layout. Learn more.

Left ArrowRight Arrow

39.51506, -84.39828

Hourly Observations for November 1, 2020

Temp ( °F °C ) Dew Point ( °F °C ) Humidity (%) Winds ( mph kmh ) Pressure ( in mb ) Visibility ( mi km ) Precip ( " mm )
12:15 am 00:15 Clear 45 7.1 41 4.8 85 85 W 6 9 30.11 1020 10 16.0934 0 0
12:35 am 00:35 Clear 45 7 41 4.8 86 86 W 6 9 30.09 1019 10 16.0934 0 0
12:55 am 00:55 Clear 45 7.2 40 4.4 83 83 WSW 5 7 30.08 1018 10 16.0934 0 0
1:15 am 01:15 Clear 45 7.3 40 4.4 82 82 WSW 5 7 30.07 1018 10 16.0934 0 0
1:35 am 01:35 Clear 45 7.4 41 4.9 84 84 W 5 7 30.06 1018 10 16.0934 0 0
1:55 am 01:55 Clear 47 8.5 40 4.7 77 77 W 5 7 30.05 1018 10 16.0934 0 0
1:15 am 01:15 Clear 48 8.8 40 4.6 75 75 WSW 6 9 30.04 1017 10 16.0934 0 0
1:35 am 01:35 Clear 48 9.1 40 4.7 74 74 WSW 7 11 30.02 1017 10 16.0934 0 0
1:55 am 01:55 Clear 48 9.1 40 4.6 74 74 WSW 7 11 30.02 1017 10 16.0934 0 0
2:15 am 02:15 Mostly Cloudy 48 9 41 4.8 75 75 W 7 11 30.01 1016 10 16.0934 0 0
2:35 am 02:35 Mostly Cloudy 47 8.3 42 5.5 83 83 W 8 13 30.01 1016 10 16.0934 0 0
2:55 am 02:55 Partly Cloudy 47 8.5 42 5.7 83 83 W 8 13 30 1016 10 16.0934 0 0
3:15 am 03:15 Partly Cloudy 52 10.9 45 7.2 78 78 W 14 22 29.99 1015 10 16.0934 0 0
3:35 am 03:35 Clear 52 11.1 45 7.3 78 78 W 14 22 29.98 1015 10 16.0934 0 0
3:55 am 03:55 Clear 52 11.2 46 7.6 79 79 W 13 20 29.97 1015 10 16.0934 0 0
4:15 am 04:15 Clear 53 11.6 46 7.8 78 78 W 14 22 29.95 1014 10 16.0934 0 0
4:35 am 04:35 Clear 53 11.7 47 8.1 79 79 W 15 24 29.94 1014 10 16.0934 0 0
4:55 am 04:55 Mostly Cloudy 53 11.6 47 8.2 80 80 W 14 22 29.93 1014 10 16.0934 0 0
5:15 am 05:15 Cloudy 53 11.8 47 8.2 79 79 W 16 26 29.93 1014 10 16.0934 0 0
5:35 am 05:35 Cloudy 53 11.7 47 8.1 79 79 W 13 20 29.94 1014 10 16.0934 0 0
5:55 am 05:55 Cloudy 53 11.8 46 7.9 77 77 W 12 19 29.94 1014 10 16.0934 0 0
6:15 am 06:15 Cloudy 54 12.1 45 7.2 72 72 WNW 15 24 29.94 1014 10 16.0934 0 0
6:35 am 06:35 Cloudy 54 12.1 44 6.8 70 70 W 14 22 29.94 1014 10 16.0934 0 0
6:55 am 06:55 Cloudy 54 12.1 44 6.4 68 68 WNW 16 26 29.95 1014 10 16.0934 0 0
7:15 am 07:15 Cloudy 53 11.7 42 5.6 66 66 WNW 17 28 29.95 1014 10 16.0934 0 0
7:35 am 07:35 Sunny 52 11.1 39 4 62 62 WNW 16 26 29.96 1014 10 16.0934 0 0
7:55 am 07:55 Sunny 51 10.8 31 -0.8 45 45 NW 22 35 29.98 1015 10 16.0934 0 0
8:15 am 08:15 Sunny 51 10.6 31 -0.3 47 47 NNW 18 30 29.99 1015 10 16.0934 0 0
8:35 am 08:35 Sunny 51 10.6 32 0.2 49 49 NNW 20 31 30.01 1016 10 16.0934 0 0
8:55 am 08:55 Sunny 51 10.3 33 0.4 51 51 NW 21 33 30.02 1017 10 16.0934 0 0
9:15 am 09:15 Sunny 50 10.2 32 0 49 49 NNW 24 39 30.03 1017 10 16.0934 0 0
9:35 am 09:35 Sunny 51 10.3 30 -1.1 45 45 NNW 21 33 30.03 1017 10 16.0934 0 0
9:55 am 09:55 Sunny 50 9.9 28 -2.3 43 43 NW 20 31 30.04 1017 10 16.0934 0 0
10:15 am 10:15 Sunny 50 9.9 29 -1.8 44 44 NW 24 39 30.04 1017 10 16.0934 0 0
10:35 am 10:35 Sunny 50 10 28 -2.2 43 43 NW 21 33 30.05 1018 10 16.0934 0 0
10:55 am 10:55 Sunny 50 9.8 28 -2.5 42 42 NW 23 37 30.07 1018 10 16.0934 0 0
11:15 am 11:15 Sunny 49 9.6 26 -3.3 40 40 NW 30 48 30.08 1019 10 16.0934 0 0
11:35 am 11:35 Sunny 49 9.7 26 -3.4 40 40 NW 25 41 30.08 1019 10 16.0934 0 0
11:55 am 11:55 Sunny 49 9.4 26 -3.1 42 42 NNW 23 37 30.09 1019 10 16.0934 0 0
12:15 pm 12:15 Sunny 49 9.3 27 -2.6 43 43 NNW 20 31 30.1 1019 10 16.0934 0 0
12:35 pm 12:35 Partly Cloudy 49 9.2 27 -2.8 43 43 NNW 24 39 30.11 1020 10 16.0934 0 0
12:55 pm 12:55 Partly Cloudy 48 9.1 27 -2.8 43 43 NW 21 33 30.11 1020 10 16.0934 0 0
1:15 pm 13:15 Partly Cloudy 47 8.5 24 -4.3 40 40 NW 25 41 30.13 1020 10 16.0934 0 0
1:35 pm 13:35 Sunny 47 8.4 24 -4.6 40 40 NW 26 43 30.14 1021 10 16.0934 0 0
1:55 pm 13:55 Partly Cloudy 44 6.9 24 -4.7 44 44 NNW 23 37 30.16 1021 10 16.0934 0 0
2:15 pm 14:15 Mostly Cloudy 44 6.8 25 -3.8 47 47 NNW 21 33 30.17 1022 10 16.0934 0 0
2:35 pm 14:35 Cloudy 43 6.3 24 -4.3 47 47 NNW 20 31 30.18 1022 10 16.0934 0 0
2:55 pm 14:55 Cloudy 42 5.8 24 -4.2 49 49 NNW 17 28 30.2 1023 10 16.0934 0 0
3:15 pm 15:15 Cloudy 41 5 23 -4.9 49 49 NNW 18 30 30.22 1023 10 16.0934 0 0
3:35 pm 15:35 Cloudy 40 4.5 22 -5.3 49 49 NW 23 37 30.23 1024 10 16.0934 0 0
3:55 pm 15:55 Cloudy 40 4.3 23 -5.1 51 51 NNW 18 30 30.24 1024 10 16.0934 0 0
4:15 pm 16:15 Cloudy 39 4.1 22 -5.5 50 50 NNW 23 37 30.26 1025 10 16.0934 0 0
4:35 pm 16:35 Cloudy 39 3.9 23 -5.2 52 52 NNW 17 28 30.27 1025 10 16.0934 0 0
4:55 pm 16:55 Cloudy 39 3.8 23 -5.2 52 52 NNW 17 28 30.29 1026 10 16.0934 0 0
5:15 pm 17:15 Cloudy 38 3.6 22 -5.7 51 51 NNW 18 30 30.3 1026 10 16.0934 0 0
5:35 pm 17:35 Cloudy 38 3.5 22 -5.7 51 51 NNW 18 30 30.3 1026 10 16.0934 0 0
5:55 pm 17:55 Cloudy 38 3.5 22 -5.7 51 51 NNW 13 20 30.31 1026 10 16.0934 0 0
6:15 pm 18:15 Cloudy 38 3.5 20 -6.6 48 48 NNW 12 19 30.32 1027 10 16.0934 0 0
6:35 pm 18:35 Cloudy 38 3.6 20 -6.7 47 47 NNW 13 20 30.32 1027 10 16.0934 0 0
6:55 pm 18:55 Cloudy 38 3.6 19 -7 46 46 N 15 24 30.34 1027 10 16.0934 0 0
7:15 pm 19:15 Cloudy 38 3.6 20 -6.7 47 47 NNW 12 19 30.35 1028 10 16.0934 0 0
7:35 pm 19:35 Cloudy 38 3.6 20 -6.8 47 47 NNW 12 19 30.36 1028 10 16.0934 0 0
7:55 pm 19:55 Cloudy 38 3.6 20 -6.7 47 47 N 10 17 30.37 1028 10 16.0934 0 0
8:15 pm 20:15 Cloudy 38 3.4 20 -6.8 48 48 NNW 14 22 30.37 1028 10 16.0934 0 0
8:35 pm 20:35 Cloudy 38 3.3 20 -6.8 48 48 NNW 13 20 30.37 1028 10 16.0934 0 0
8:55 pm 20:55 Cloudy 37 3 20 -6.7 49 49 NW 8 13 30.37 1028 10 16.0934 0 0
9:15 pm 21:15 Cloudy 37 2.8 20 -6.5 51 51 NW 7 11 30.38 1029 10 16.0934 0 0
9:35 pm 21:35 Clear 35 1.9 20 -6.4 55 55 WNW 7 11 30.38 1029 10 16.0934 0 0
9:55 pm 21:55 Clear 34 1.2 21 -6.1 59 59 WNW 7 11 30.38 1029 10 16.0934 0 0
10:15 pm 22:15 Clear 34 1 22 -5.8 61 61 WNW 7 11 30.38 1029 10 16.0934 0 0
10:35 pm 22:35 Clear 33 0.5 22 -5.8 63 63 W 7 11 30.38 1029 10 16.0934 0 0
10:55 pm 22:55 Clear 32 -0.2 22 -5.7 67 67 WNW 7 11 30.4 1029 10 16.0934 0 0
11:15 pm 23:15 Clear 31 -0.3 22 -5.7 67 67 WNW 8 13 30.4 1029 10 16.0934 0 0
11:35 pm 23:35 Clear 31 -0.5 22 -5.7 68 68 W 7 11 30.4 1029 10 16.0934 0 0
11:55 pm 23:55 Clear 31 -0.6 22 -5.7 69 69 W 8 13 30.39 1029 10 16.0934 0 0

Powered by AerisWeather